Terre Haute, IN

12:42 PM EDT on September 23, 2019 (GMT -0400)
Terre Haute International-Hulman

Weather History for KHUF - August, 2019

Change the Weather History Date:

Friday, August 23, 2019

  Actual Average Record
Temperature  
Mean Temperature 72 °F 72 °F  
Max Temperature 80 °F 84 °F 97 °F (2007)
Min Temperature 63 °F 61 °F 51 °F (1997)
Degree Days  
Heating Degree Days 0 0  
Month to date heating degree days 0 0  
Since 1 June heating degree days 8 14  
Since 1 July heating degree days 0 1  
Cooling Degree Days 7 7  
Month to date cooling degree days 233 193  
Year to date cooling degree days 981 825  
Since 1 June cooling degree days 853 739  
Growing Degree Days 22 (Base 50)    
Moisture  
Dew Point 62 °F    
Average Humidity 74    
Maximum Humidity 100    
Minimum Humidity 48    
Precipitation  
Precipitation 0.00 in 0.12 in 1.16 in (2014)
Month to date precipitation 2.73 2.42  
Year to date precipitation 35.92 30.09  
Sea Level Pressure  
Sea Level Pressure 30.09 in    
Wind  
Wind Speed 8 mph (NE)    
Max Wind Speed 16 mph    
Max Gust Speed 23 mph    
Visibility 10 miles    
Events      
T = Trace of Precipitation, MM = Missing Value Source: NWS Daily Summary

Daily Weather History Graph

Daily Weather History Graph

Search for Another Location

Airport or City:

Astronomy

Aug. 23, 2019 Rise Set
Actual Time 7:09 AM EDT 8:34 PM EDT
Civil Twilight 6:40 AM EDT 9:02 PM EDT
Nautical Twilight 6:07 AM EDT 9:35 PM EDT
Astronomical Twilight 5:31 AM EDT 10:11 PM EDT
Moon 12:27 AM EDT 2:43 PM EDT
Length of Visible Light 14h 21m
Length of Day
13h 24m
Waning Gibbous, 50% of the Moon is Illuminated
Aug 23
Waning Gibbous
Aug 30
New
Sep 5
First Quarter
Sep 14
Full
Sep 21
Last Quarter

Hourly Weather History & Observations

Time (EDT) Temp. Heat Index Dew Point Humidity Pressure Visibility Wind Dir Wind Speed Gust Speed Precip Events Conditions
12:53 AM 68.0 °F - 66.0 °F 93% 30.00 in 10.0 mi Calm Calm - N/A   Clear
1:53 AM 68.0 °F - 66.9 °F 96% 30.01 in 10.0 mi North 4.6 mph - N/A   Mostly Cloudy
2:53 AM 68.0 °F - 66.0 °F 93% 30.01 in 10.0 mi North 5.8 mph - N/A   Clear
3:53 AM 66.9 °F - 64.9 °F 93% 30.01 in 10.0 mi North 5.8 mph - N/A   Clear
4:53 AM 66.0 °F - 64.0 °F 93% 30.01 in 10.0 mi NNE 4.6 mph - N/A   Clear
5:53 AM 64.9 °F - 64.0 °F 97% 30.03 in 6.0 mi North 4.6 mph - N/A   Clear
6:53 AM 64.9 °F - 63.0 °F 93% 30.04 in 7.0 mi NE 4.6 mph - N/A   Clear
7:53 AM 64.0 °F - 63.0 °F 96% 30.08 in 4.0 mi North 5.8 mph - N/A   Partly Cloudy
8:53 AM 68.0 °F - 64.9 °F 90% 30.09 in 10.0 mi NE 9.2 mph - N/A   Partly Cloudy
9:53 AM 72.0 °F - 66.0 °F 81% 30.10 in 10.0 mi NE 8.1 mph - N/A   Clear
10:53 AM 75.0 °F - 64.9 °F 71% 30.11 in 10.0 mi NE 9.2 mph - N/A   Clear
11:53 AM 75.0 °F - 64.0 °F 69% 30.12 in 10.0 mi NE 6.9 mph - N/A   Clear
12:53 PM 77.0 °F - 63.0 °F 62% 30.12 in 10.0 mi ENE 13.8 mph - N/A   Clear
1:53 PM 78.1 °F - 61.0 °F 56% 30.12 in 10.0 mi ENE 10.4 mph - N/A   Scattered Clouds
2:53 PM 78.1 °F - 61.0 °F 56% 30.11 in 10.0 mi NE 11.5 mph - N/A   Partly Cloudy
3:53 PM 80.1 °F 81.1 °F 61.0 °F 52% 30.11 in 10.0 mi NE 12.7 mph - N/A   Clear
4:53 PM 79.0 °F - 59.0 °F 50% 30.10 in 10.0 mi NE 13.8 mph 20.7 mph N/A   Clear
5:53 PM 78.1 °F - 57.0 °F 48% 30.10 in 10.0 mi NE 12.7 mph - N/A   Clear
6:53 PM 77.0 °F - 57.9 °F 52% 30.10 in 10.0 mi NNE 9.2 mph - N/A   Clear
7:53 PM 73.0 °F - 59.0 °F 61% 30.10 in 10.0 mi NNE 8.1 mph - N/A   Clear
8:53 PM 66.0 °F - 60.1 °F 81% 30.12 in 10.0 mi NNE 3.5 mph - N/A   Clear
9:53 PM 64.9 °F - 59.0 °F 81% 30.14 in 10.0 mi NNE 5.8 mph - N/A   Clear
10:53 PM 66.0 °F - 59.0 °F 78% 30.15 in 10.0 mi NE 9.2 mph - N/A   Mostly Cloudy
11:53 PM 64.0 °F - 59.0 °F 84% 30.16 in 10.0 mi NE 5.8 mph - N/A   Mostly Cloudy